Peyton, CO

3:37 AM MST on February 26, 2017 (GMT -0700)
Meadow Lake

Weather History for KFLY - March, 2014

Change the Weather History Date:

Friday, March 14, 2014

  Actual Average (KCOS) Record (KCOS)
Temperature  
Mean Temperature 38 °F -  
Max Temperature 52 °F 50 °F 75 °F (1935)
Min Temperature 25 °F 26 °F -6 °F (1895)
Degree Days  
Heating Degree Days 26    
Moisture  
Dew Point 19 °F    
Average Humidity 46    
Maximum Humidity 83    
Minimum Humidity 25    
Precipitation  
Precipitation 0.00 in - - ()
Sea Level Pressure  
Sea Level Pressure 30.02 in    
Wind  
Wind Speed 9 mph (SW)    
Max Wind Speed 22 mph    
Max Gust Speed 31 mph    
Visibility 10 miles    
Events      
Averages and records for this station are not official NWS values.
T = Trace of Precipitation, MM = Missing Value Source: NWS Daily Summary

Daily Weather History Graph

Daily Weather History Graph

Search for Another Location

Airport or City:

Trip Planner

Search our weather history database for the weather conditions in past years. The results will help you decide how hot, cold, wet, or windy it might be!

Date:

Astronomy

Mar. 14, 2014 Rise Set
Actual Time 7:11 AM MDT 7:04 PM MDT
Civil Twilight 6:44 AM MDT 7:30 PM MDT
Nautical Twilight 6:13 AM MDT 8:01 PM MDT
Astronomical Twilight 5:42 AM MDT 8:33 PM MDT
Moon 5:29 PM MDT (3/14) 5:51 AM MDT (3/14)
Length of Visible Light 12h 46m
Length of Day
11h 53m
Waxing Gibbous, 96% of the Moon is Illuminated
Mar 14
Waxing Gibbous
Mar 16
Full
Mar 23
Last Quarter
Mar 30
New
Apr 7
First Quarter

Hourly Weather History & Observations

Time (MDT) Temp. Windchill Dew Point Humidity Pressure Visibility Wind Dir Wind Speed Gust Speed Precip Events Conditions
12:10 AM 40.1 °F 35.3 °F 13.8 °F 34% 29.95 in 10.0 mi WNW 6.9 mph - N/A   Clear
12:30 AM 40.6 °F - 13.6 °F 33% 29.95 in 10.0 mi Calm Calm - N/A   Clear
12:50 AM 40.8 °F 38.8 °F 13.6 °F 33% 29.96 in 10.0 mi North 3.5 mph - N/A   Clear
1:10 AM 41.2 °F 36.0 °F 14.0 °F 33% 29.96 in 10.0 mi NNW 8.1 mph - N/A   Clear
1:30 AM 41.2 °F 36.6 °F 14.2 °F 33% 29.97 in 10.0 mi NNW 6.9 mph - N/A   Clear
1:50 AM 40.5 °F 38.4 °F 14.2 °F 34% 29.98 in 10.0 mi NNW 3.5 mph - N/A   Clear
2:10 AM 37.4 °F 30.3 °F 16.2 °F 42% 30.00 in 10.0 mi North 10.4 mph 18.4 mph N/A   Clear
2:30 AM 34.9 °F 28.3 °F 17.2 °F 49% 30.00 in 10.0 mi North 8.1 mph - N/A   Clear
2:50 AM 33.8 °F 27.7 °F 17.2 °F 51% 30.00 in 10.0 mi North 6.9 mph - N/A   Clear
3:10 AM 32.2 °F 24.4 °F 17.2 °F 54% 30.00 in 10.0 mi North 9.2 mph - N/A   Clear
3:30 AM 32.0 °F 23.6 °F 17.6 °F 55% 30.00 in 10.0 mi North 10.4 mph - N/A   Clear
3:50 AM 31.6 °F 23.7 °F 18.5 °F 58% 30.01 in 10.0 mi North 9.2 mph - N/A   Clear
4:10 AM 30.7 °F 22.0 °F 18.9 °F 61% 30.02 in 10.0 mi NNW 10.4 mph - N/A   Clear
4:30 AM 30.7 °F 22.6 °F 18.9 °F 61% 30.02 in 10.0 mi NW 9.2 mph - N/A   Clear
4:50 AM 30.2 °F 22.6 °F 19.2 °F 64% 30.03 in 10.0 mi NW 8.1 mph - N/A   Clear
5:10 AM 29.8 °F 21.5 °F 19.2 °F 65% 30.04 in 10.0 mi NNW 9.2 mph - N/A   Clear
5:30 AM 28.4 °F 22.2 °F 18.9 °F 67% 30.05 in 10.0 mi NW 5.8 mph - N/A   Clear
5:50 AM 27.3 °F 22.0 °F 18.5 °F 69% 30.06 in 10.0 mi NW 4.6 mph - N/A   Clear
6:10 AM 27.9 °F 20.6 °F 18.9 °F 69% 30.06 in 10.0 mi NW 6.9 mph - N/A   Clear
6:30 AM 26.6 °F 21.2 °F 18.9 °F 73% 30.06 in 10.0 mi NNW 4.6 mph - N/A   Clear
6:50 AM 25.7 °F 17.1 °F 18.5 °F 74% 30.06 in 10.0 mi NW 8.1 mph - N/A   Clear
7:10 AM 29.8 °F 23.9 °F 19.8 °F 66% 30.07 in 10.0 mi NNW 5.8 mph - N/A   Clear
7:30 AM 27.5 °F 21.1 °F 19.2 °F 71% 30.08 in 10.0 mi NW 5.8 mph - N/A   Clear
7:50 AM 29.8 °F 23.9 °F 20.3 °F 68% 30.09 in 10.0 mi West 5.8 mph - N/A   Clear
8:10 AM 32.4 °F 27.9 °F 21.2 °F 63% 30.10 in 10.0 mi West 4.6 mph - N/A   Clear
8:30 AM 36.1 °F 32.3 °F 20.5 °F 53% 30.10 in 10.0 mi West 4.6 mph - N/A   Clear
8:50 AM 37.6 °F 33.1 °F 18.9 °F 47% 30.10 in 10.0 mi SW 5.8 mph - N/A   Clear
9:10 AM 39.2 °F 33.6 °F 18.1 °F 43% 30.10 in 10.0 mi SW 8.1 mph - N/A   Clear
9:30 AM 40.1 °F 34.7 °F 18.7 °F 42% 30.11 in 10.0 mi SW 8.1 mph - N/A   Clear
9:50 AM 41.2 °F 34.1 °F 18.1 °F 40% 30.11 in 10.0 mi South 12.7 mph - N/A   Clear
10:10 AM 41.9 °F 35.4 °F 18.0 °F 38% 30.12 in 10.0 mi SSW 11.5 mph - N/A   Clear
10:30 AM 42.1 °F 34.9 °F 17.2 °F 37% 30.12 in 10.0 mi South 13.8 mph - N/A   Clear
10:50 AM 42.8 °F 35.4 °F 17.8 °F 37% 30.12 in 10.0 mi SSW 15.0 mph 20.7 mph N/A   Clear
11:10 AM 43.7 °F 36.3 °F 17.2 °F 35% 30.11 in 10.0 mi South 16.1 mph 24.2 mph N/A   Clear
11:30 AM 44.2 °F 38.0 °F 17.1 °F 34% 30.10 in 10.0 mi South 12.7 mph 23.0 mph N/A   Clear
11:50 AM 45.0 °F 37.6 °F 17.1 °F 33% 30.10 in 10.0 mi South 17.3 mph 24.2 mph N/A   Clear
12:10 PM 46.2 °F 40.1 °F 17.1 °F 31% 30.09 in 10.0 mi South 13.8 mph 20.7 mph N/A   Clear
12:30 PM 48.2 °F - 17.4 °F 29% 30.08 in 10.0 mi South 17.3 mph 26.5 mph N/A   Clear
12:50 PM 48.0 °F - 17.2 °F 29% 30.07 in 10.0 mi SSW 19.6 mph 26.5 mph N/A   Clear
1:10 PM 49.3 °F - 17.4 °F 28% 30.06 in 10.0 mi South 17.3 mph 27.6 mph N/A   Clear
1:30 PM 49.5 °F - 17.1 °F 28% 30.05 in 10.0 mi South 18.4 mph 27.6 mph N/A   Clear
1:50 PM 50.4 °F - 17.2 °F 27% 30.04 in 10.0 mi South 19.6 mph 28.8 mph N/A   Clear
2:10 PM 50.9 °F - 16.9 °F 26% 30.02 in 10.0 mi South 19.6 mph 28.8 mph N/A   Clear
2:30 PM 50.5 °F - 16.3 °F 26% 30.02 in 10.0 mi South 19.6 mph 28.8 mph N/A   Clear
2:50 PM 51.1 °F - 16.3 °F 25% 30.02 in 10.0 mi South 19.6 mph 26.5 mph N/A   Clear
3:10 PM 51.4 °F - 16.5 °F 25% 30.01 in 10.0 mi South 17.3 mph 24.2 mph N/A   Clear
3:30 PM 52.0 °F - 16.7 °F 25% 30.01 in 10.0 mi South 21.9 mph 26.5 mph N/A   Clear
3:50 PM 51.8 °F - 16.9 °F 25% 30.00 in 10.0 mi South 18.4 mph 31.1 mph N/A   Clear
4:10 PM 51.4 °F - 16.9 °F 25% 30.00 in 10.0 mi South 13.8 mph 24.2 mph N/A   Clear
4:30 PM 51.6 °F - 17.1 °F 26% 29.99 in 10.0 mi South 17.3 mph 24.2 mph N/A   Clear
4:50 PM 50.9 °F - 16.9 °F 26% 29.99 in 10.0 mi South 17.3 mph 27.6 mph N/A   Clear
5:10 PM 50.5 °F - 16.9 °F 26% 29.98 in 10.0 mi SSE 17.3 mph - N/A   Clear
5:30 PM 50.0 °F - 17.1 °F 27% 29.98 in 10.0 mi South 17.3 mph 24.2 mph N/A   Clear
5:50 PM 49.3 °F - 16.7 °F 27% 29.98 in 10.0 mi SSE 18.4 mph 24.2 mph N/A   Clear
6:10 PM 48.4 °F - 16.5 °F 28% 29.98 in 10.0 mi South 12.7 mph 21.9 mph N/A   Clear
6:30 PM 46.6 °F - 16.7 °F 30% 29.98 in 10.0 mi SSE 11.5 mph 17.3 mph N/A   Clear
6:50 PM 44.6 °F 39.2 °F 17.1 °F 33% 29.98 in 10.0 mi South 10.4 mph - N/A   Clear
7:10 PM 42.3 °F 37.3 °F 17.2 °F 37% 29.99 in 10.0 mi SSE 8.1 mph - N/A   Clear
7:30 PM 39.9 °F 34.5 °F 17.6 °F 41% 29.98 in 10.0 mi South 8.1 mph - N/A   Clear
7:50 PM 39.0 °F 33.4 °F 18.1 °F 43% 29.98 in 10.0 mi South 8.1 mph - N/A   Clear
8:10 PM 38.7 °F 33.6 °F 18.7 °F 45% 29.98 in 10.0 mi South 6.9 mph - N/A   Clear
8:30 PM 39.2 °F 33.6 °F 23.5 °F 53% 29.97 in 10.0 mi South 8.1 mph - N/A   Clear
8:50 PM 37.9 °F 32.7 °F 26.4 °F 63% 29.98 in 10.0 mi South 6.9 mph - N/A   Clear
9:10 PM 36.7 °F 32.9 °F 26.6 °F 67% 29.97 in 10.0 mi SW 4.6 mph - N/A   Clear
9:30 PM 36.7 °F 34.1 °F 27.5 °F 69% 29.97 in 10.0 mi SW 3.5 mph - N/A   Clear
9:50 PM 35.2 °F 32.4 °F 27.1 °F 72% 29.97 in 10.0 mi WSW 3.5 mph - N/A   Clear
10:10 PM 34.7 °F 29.6 °F 27.3 °F 74% 29.97 in 10.0 mi West 5.8 mph - N/A   Clear
10:30 PM 30.4 °F 23.6 °F 25.9 °F 83% 29.97 in 10.0 mi WNW 6.9 mph - N/A   Clear
10:50 PM 30.2 °F 23.4 °F 25.7 °F 83% 29.96 in 10.0 mi WNW 6.9 mph - N/A   Clear
11:10 PM 32.4 °F 26.0 °F 25.9 °F 77% 29.95 in 10.0 mi West 6.9 mph - N/A   Clear
11:30 PM 33.1 °F 25.5 °F 24.4 °F 71% 29.95 in 10.0 mi WNW 9.2 mph - N/A   Clear
11:50 PM 34.3 °F 26.5 °F 22.5 °F 62% 29.94 in 10.0 mi WNW 10.4 mph - N/A   Clear